User: anonymous   Login
Location: Castiglione Fibocchi
(43.5333°N, 11.7667°E)
Time: 07:50:18
(UTC+00:00)
Language:

Cosmos 1553 Rocket - Orbit

View from above orbital plane
View from above orbital plane
View from above satellite
View from above satellite

Ground track
Ground track

The orbit data is extracted from the following two-line orbital elements,

1 14974U 84046B   20299.96736895 +.00000151 +00000-0 +13633-3 0  9998
2 14974 082.9324 309.5884 0045493 166.1690 256.4962 13.76933415830788
Epoch (UTC): 25 October 2020 23:13:00
Eccentricity: 0.0045493
inclination: 82.9324°
perigee height: 941 km
apogee height: 1008 km
right ascension of ascending node: 309.5884°
argument of perigee: 166.1690°
revolutions per day: 13.76933415
mean anomaly at epoch: 256.4962°
orbit number at epoch: 83078

The dashed part of the orbit path shows where the satellite is in the earth's shadow,  

DLR